Terminal Aerodrome Forecast
Issued by NWS

Home | Current Version | Previous Version | Text Only | Print | Product List | Glossary On
Versions: 1 2 3 4 5 6 7 8 9 10 11 12 13 14 15 16 17 18 19 20
000
FTUS46 KSEW 290500
TAFOLM
TAF
KOLM 290520Z 2906/3006 VRB03KT P6SM BKN250
     FM291200 00000KT 3SM BR SCT003 SCT250
      TEMPO 2913/2915 1/4SM FG VV001
     FM291700 VRB04KT P6SM SKC=

USA.gov is the U.S. government's official web portal to all federal, state and local government web resources and services.